TimeCST,TemperatureF,Dew PointF,Humidity,Sea Level PressureIn,VisibilityMPH,Wind Direction,Wind SpeedMPH,Gust SpeedMPH,PrecipitationIn,Events,Conditions,WindDirDegrees,DateUTC
6:00 AM,72,68,83,29.90,12,SSW,11.5,,,,Scattered Clouds,210,2013-11-30 12:00:00
6:00 AM,71.6,68.0,88,29.87,6.2,SSW,2.3,-,N/A,,Scattered Clouds,210,2013-11-30 12:00:00
7:00 AM,77.0,68.0,74,29.89,6.2,Calm,Calm,-,N/A,,Scattered Clouds,0,2013-11-30 13:00:00
8:00 AM,82.4,69.8,66,29.90,6.2,WNW,4.6,-,N/A,,Scattered Clouds,300,2013-11-30 14:00:00
9:00 AM,86,69,47,29.94,12,NE,10.4,,,,Partly Cloudy,50,2013-11-30 15:00:00
9:00 AM,86.0,68.0,55,29.91,6.2,NE,10.4,-,N/A,,Scattered Clouds,50,2013-11-30 15:00:00
10:00 AM,86.0,68.0,55,29.89,6.2,ENE,16.1,-,N/A,,Scattered Clouds,60,2013-11-30 16:00:00
11:00 AM,86.0,66.2,51,29.87,6.2,East,20.7,32.2,N/A,,Scattered Clouds,80,2013-11-30 17:00:00
12:00 PM,87,67,42,29.88,12,East,20.7,,,,Partly Cloudy,80,2013-11-30 18:00:00
12:00 PM,86.0,68.0,55,29.84,6.2,East,20.7,32.2,N/A,,Scattered Clouds,80,2013-11-30 18:00:00
1:00 PM,87.8,68.0,52,29.81,6.2,East,19.6,-,N/A,,Scattered Clouds,80,2013-11-30 19:00:00
2:00 PM,86.0,68.0,55,-9999,6.2,ENE,20.7,-,N/A,,Unknown,70,2013-11-30 20:00:00
3:00 PM,84,70,54,29.82,12,ESE,9.2,,,,Scattered Clouds,110,2013-11-30 21:00:00
3:00 PM,84.2,69.8,62,29.78,6.2,ESE,9.2,-,N/A,,Partly Cloudy,110,2013-11-30 21:00:00
4:00 PM,86.0,66.2,51,29.78,6.2,ENE,11.5,-,N/A,,Scattered Clouds,60,2013-11-30 22:00:00
5:00 PM,82.4,68.0,62,29.80,6.2,ENE,13.8,-,N/A,,Scattered Clouds,70,2013-11-30 23:00:00
6:00 PM,79,68,61,29.85,12,East,8.1,,,,Partly Cloudy,80,2013-12-01 00:00:00
6:00 PM,78.8,68.0,69,29.82,6.2,East,8.1,-,N/A,,Scattered Clouds,80,2013-12-01 00:00:00
7:00 PM,77.0,69.8,78,29.85,6.2,NE,10.4,-,N/A,,Mostly Cloudy,50,2013-12-01 01:00:00
8:00 PM,78.8,68.0,69,29.86,6.2,East,11.5,-,N/A,,Scattered Clouds,80,2013-12-01 02:00:00